Location: La Oliva
(42.2466°N, 2.9955°E)
Time: 06:43:50
(UTC+00:00)

Cosmos 1603 - Pass Details

Date: 22 April 2021
Orbit: 830 x 860 km, 71.0° (Epoch: 07 May)

Event Time Altitude Azimuth Distance (km) Brightness Sun altitude
Rises 22:31:13 0° 333° (NNW) 3,432 8.0 -32.6°
Reaches altitude 10° 22:33:42 10° 331° (NNW) 2,488 7.0 -32.7°
Enters shadow 22:37:52 49° 314° (NW) 1,091 4.5 -33.0°
